User: anonymous   Login
Location: Los Gatos B&B
(42.6926°N, 77.0646°W)
Time: 14:56:54
(UTC-04:00)
Language:

Cosmos 2263 Rocket - Orbit

View from above orbital plane
View from above orbital plane
View from above satellite
View from above satellite

Ground track
Ground track

The orbit data is extracted from the following two-line orbital elements,

1 22803U 93059B   16242.91131437 +.00000199 +00000-0 +12337-3 0  9993
2 22803 070.9906 143.2141 0015204 111.9829 248.2911 14.16749616186778
Epoch (UTC): 29 August 2016 21:52:17
Eccentricity: 0.0015204
inclination: 70.9906°
perigee height: 825 km
apogee height: 847 km
right ascension of ascending node: 143.2141°
argument of perigee: 111.9829°
revolutions per day: 14.16749616
mean anomaly at epoch: 248.2911°
orbit number at epoch: 18677

The dashed part of the orbit path shows where the satellite is in the earth's shadow,  

DLR